FW3877 Weather Reports


time (UTC)temp
F
wind
direction
speed
knots
gust
knots
rain 1hr
in
rain 24hr
in
rain mn
in
humidity
%
barometer
mb
20260507135704 52 209 5.2 10.4 0.00 0.05 0.05 88 1010.2
20260507135204 52 216 6.1 10.4 0.02 0.05 0.05 88 1010.2
20260507134704 52 217 6.1 15.6 0.02 0.05 0.05 89 1010.2
20260507134203 52 207 4.3 7.8 0.02 0.05 0.05 89 1010.2
20260507133704 52 210 6.1 10.4 0.02 0.05 0.05 89 1010.2
20260507133204 52 215 4.3 10.4 0.02 0.05 0.05 89 1010.2
20260507132703 52 202 7.0 11.3 0.02 0.05 0.05 89 1010.3
20260507132204 52 191 6.1 10.4 0.02 0.05 0.05 89 1010.2
20260507131704 52 211 5.2 10.4 0.02 0.05 0.05 89 1010.3
20260507131204 51 211 4.3 7.8 0.02 0.05 0.05 89 1010.4
20260507130704 51 192 5.2 8.7 0.02 0.05 0.05 89 1010.3
20260507130203 50 209 5.2 10.4 0.02 0.05 0.05 87 1010.3
20260507125704 50 205 7.8 13.0 0.02 0.05 0.05 87 1010.5
20260507125203 51 203 8.7 14.8 0.01 0.03 0.03 86 1010.4
20260507124704 51 203 6.1 10.4 0.01 0.03 0.03 87 1010.4
20260507124204 52 197 6.1 12.2 0.01 0.03 0.03 87 1010.3
20260507123704 52 194 6.1 11.3 0.01 0.03 0.03 86 1010.3
20260507123204 52 194 5.2 10.4 0.01 0.03 0.03 86 1010.3
20260507122705 53 215 5.2 7.8 0.01 0.03 0.03 88 1010.3
20260507122204 52 199 5.2 10.4 0.01 0.03 0.03 88 1010.3
20260507121704 51 211 6.1 11.3 0.02 0.03 0.03 87 1010.3
20260507121204 51 217 4.3 8.7 0.03 0.03 0.03 88 1010.4
20260507120203 50 212 5.2 8.7 0.03 0.03 0.03 88 1010.5
20260507115703 50 230 4.3 8.7 0.02 0.02 0.02 87 1010.6
20260507115204 51 207 6.1 10.4 0.02 0.02 0.02 87 1010.5
20260507114204 51 203 5.2 7.8 0.02 0.02 0.02 86 1010.6
20260507113704 51 212 6.1 11.3 0.02 0.02 0.02 86 1010.6
20260507113204 51 200 5.2 8.7 0.02 0.02 0.02 86 1010.6
20260507112703 51 220 3.5 5.2 0.02 0.02 0.02 85 1010.5
20260507112204 50 216 4.3 8.7 0.02 0.02 0.02 83 1010.6
20260507111704 51 220 4.3 6.1 0.01 0.01 0.01 82 1010.6
20260507110204 51 261 5.2 10.4 0.00 0.00 0.00 81 1010.4
20260507105704 51 234 4.3 10.4 0.00 0.00 0.00 81 1010.4
20260507105204 51 236 6.1 10.4 0.00 0.00 0.00 81 1010.4
20260507104703 51 221 6.1 13.0 0.00 0.00 0.00 80 1010.4
20260507104204 52 240 6.1 10.4 0.00 0.00 0.00 78 1010.3
20260507103703 52 229 6.1 11.3 0.00 0.00 0.00 78 1010.4
20260507103204 52 236 8.7 14.8 0.00 0.00 0.00 76 1010.3
20260507102703 52 231 6.1 13.0 0.00 0.00 0.00 76 1010.2
20260507102204 53 193 8.7 13.0 0.00 0.00 0.00 75 1010.1
20260507101703 54 208 7.8 13.9 0.00 0.00 0.00 76 1010.0
20260507101203 54 176 10.4 14.8 0.00 0.00 0.00 75 1010.0
20260507100204 53 202 7.8 14.8 0.00 0.00 0.00 77 1010.2
20260507095703 53 212 6.1 12.2 0.00 0.00 0.00 78 1010.2
20260507095204 53 201 5.2 13.0 0.00 0.00 0.00 78 1010.2
20260507094704 53 204 7.8 11.3 0.00 0.00 0.00 78 1010.2
20260507094204 53 197 7.8 10.4 0.00 0.00 0.00 78 1010.2
20260507093204 52 222 7.8 13.9 0.00 0.00 0.00 79 1010.3
20260507092703 52 210 7.8 11.3 0.00 0.00 0.00 80 1010.3
20260507092203 51 228 5.2 11.3 0.00 0.00 0.00 80 1010.3
20260507091704 51 212 7.8 12.2 0.00 0.00 0.00 80 1010.4
20260507091204 51 202 8.7 13.9 0.00 0.00 0.00 80 1010.4
20260507090704 51 206 7.8 14.8 0.00 0.00 0.00 81 1010.2
20260507090203 50 201 7.0 14.8 0.00 0.00 0.00 81 1010.3
20260507085704 50 219 7.8 12.2 0.00 0.00 0.00 81 1010.2
20260507085203 50 205 8.7 13.9 0.00 0.00 0.00 81 1010.3
20260507084704 50 190 7.8 13.9 0.00 0.00 0.00 81 1010.3
20260507084204 50 207 8.7 13.9 0.00 0.00 0.00 81 1010.3
20260507083705 50 209 7.8 13.0 0.00 0.00 0.00 81 1010.3
20260507083203 50 216 5.2 12.2 0.00 0.00 0.00 82 1010.3
20260507082703 49 195 6.1 10.4 0.00 0.00 0.00 82 1010.4
20260507082203 49 206 6.1 10.4 0.00 0.00 0.00 82 1010.3
20260507081203 49 211 10.4 15.6 0.00 0.00 0.00 82 1010.5
20260507080203 49 203 6.1 10.4 0.00 0.00 0.00 82 1010.5
20260507075704 49 207 7.8 13.9 0.00 0.00 0.00 81 1010.5
20260507075203 49 204 7.8 12.2 0.00 0.00 0.00 81 1010.3
20260507074704 50 212 6.1 12.2 0.00 0.00 0.00 82 1010.3
20260507074204 49 207 7.8 12.2 0.00 0.00 0.00 82 1010.4
20260507073704 49 206 6.1 12.2 0.00 0.00 0.00 83 1010.4
20260507073203 48 210 6.1 13.0 0.00 0.00 0.00 83 1010.4
20260507072703 48 208 4.3 10.4 0.00 0.00 0.00 83 1010.4
20260507072203 48 216 5.2 8.7 0.00 0.00 0.00 84 1010.4
20260507071704 47 206 6.1 11.3 0.00 0.00 0.00 84 1010.4
20260507071204 47 210 4.3 8.7 0.00 0.00 0.00 84 1010.3
20260507070703 47 203 5.2 8.7 0.00 0.00 0.00 84 1010.4
20260507070204 47 217 3.5 6.1 0.00 0.00 0.00 84 1010.4
20260507065704 47 219 4.3 7.8 0.00 0.00 0.00 84 1010.4
20260507065203 46 216 3.5 6.1 0.00 0.00 0.00 84 1010.4
20260507064703 46 208 4.3 7.0 0.00 0.00 0.00 84 1010.3
20260507064204 46 214 5.2 8.7 0.00 0.00 0.00 84 1010.3
20260507063703 46 199 4.3 11.3 0.00 0.00 0.00 84 1010.2
20260507063203 46 201 5.2 7.8 0.00 0.00 0.00 85 1010.2
20260507062703 45 206 5.2 10.4 0.00 0.00 0.00 85 1010.2
20260507062204 45 204 5.2 8.7 0.00 0.00 0.00 85 1010.2
20260507061703 45 201 4.3 7.8 0.00 0.00 0.00 85 1010.2
20260507061204 45 201 3.5 7.0 0.00 0.00 0.00 85 1010.2
20260507060703 44 215 4.3 7.0 0.00 0.00 0.00 85 1010.2
20260507060204 44 212 4.3 7.8 0.00 0.00 0.00 85 1010.2
20260507055704 44 220 5.2 7.8 0.00 0.00 0.00 85 1010.2
20260507055204 44 211 6.1 8.7 0.00 0.00 0.00 85 1010.3
20260507054704 43 209 5.2 7.8 0.00 0.00 0.00 85 1010.2
20260507054204 43 203 4.3 7.8 0.00 0.00 0.00 85 1010.3
20260507053703 43 203 5.2 7.0 0.00 0.00 0.00 85 1010.3
20260507053204 43 210 5.2 7.0 0.00 0.00 0.00 85 1010.3
20260507052704 43 208 5.2 7.8 0.00 0.00 0.00 85 1010.2
20260507052203 43 211 4.3 7.8 0.00 0.00 0.00 85 1010.3
20260507051703 42 213 4.3 7.0 0.00 0.00 0.00 85 1010.4
20260507051204 42 196 4.3 7.8 0.00 0.00 0.00 85 1010.3
20260507050204 43 210 2.6 5.2 0.00 0.00 0.00 85 1010.4
20260507045704 43 221 2.6 5.2 0.00 0.00 0.00 85 1010.4
20260507045203 43 217 2.6 6.1 0.00 0.00 0.00 85 1010.5
20260507044704 42 209 3.5 5.2 0.00 0.00 0.00 86 1010.5
20260507044203 42 205 2.6 4.3 0.00 0.00 0.00 85 1010.5
20260507043704 42 204 2.6 4.3 0.00 0.00 0.00 86 1010.7
20260507043203 41 219 1.7 4.3 0.00 0.00 0.00 86 1010.7
20260507042204 40 185 0.9 2.6 0.00 0.00 0.00 85 1010.6
20260507041703 39 254 0.0 0.9 0.00 0.00 0.00 84 1010.7
20260507041204 39 258 0.0 0.9 0.00 0.00 0.00 84 1010.7
20260507040704 39 272 0.9 1.7 0.00 0.00 0.00 84 1010.8
20260507040204 40 254 0.9 1.7 0.00 0.00 0.00 84 1010.7
20260507034703 39 187 0.9 2.6 0.00 0.00 0.00 84 1010.6
20260507034204 39 193 1.7 2.6 0.00 0.00 0.00 84 1010.7
20260507033703 38 205 0.9 1.7 0.00 0.00 0.00 83 1010.7
20260507032204 39 263 1.7 1.7 0.00 0.00 0.00 83 1010.6
20260507031704 40 258 0.9 2.6 0.00 0.00 0.00 83 1010.6
20260507031204 40 233 1.7 2.6 0.00 0.00 0.00 83 1010.7
20260507030704 40 183 0.9 2.6 0.00 0.00 0.00 83 1010.7
20260507030203 40 206 1.7 2.6 0.00 0.00 0.00 82 1010.8
20260507025204 41 209 1.7 2.6 0.00 0.00 0.00 83 1010.9
20260507024704 41 210 1.7 2.6 0.00 0.00 0.00 83 1010.9
20260507024203 41 194 1.7 2.6 0.00 0.00 0.00 83 1011.0
20260507023203 41 193 2.6 4.3 0.00 0.00 0.00 84 1010.9
20260507022704 41 188 1.7 2.6 0.00 0.00 0.00 84 1010.9
20260507022204 41 193 1.7 7.0 0.00 0.00 0.00 84 1010.8
20260507021703 41 189 2.6 6.1 0.00 0.00 0.00 85 1011.0
20260507021204 40 157 4.3 7.0 0.00 0.00 0.00 85 1010.9
20260507020704 40 164 2.6 4.3 0.00 0.00 0.00 84 1011.0
20260507015703 39 191 1.7 2.6 0.00 0.00 0.00 84 1011.2
20260507015204 39 199 1.7 2.6 0.00 0.00 0.00 84 1011.2
20260507014704 40 197 1.7 2.6 0.00 0.00 0.00 84 1011.2
20260507014204 39 205 0.9 2.6 0.00 0.00 0.00 84 1011.3
20260507013705 39 203 1.7 2.6 0.00 0.00 0.00 85 1011.3
20260507013204 39 186 1.7 4.3 0.00 0.00 0.00 85 1011.2
20260507012703 38 179 0.9 2.6 0.00 0.00 0.00 85 1011.3
20260507011704 37 162 0.0 1.7 0.00 0.00 0.00 84 1011.4
20260507011204 37 165 0.0 1.7 0.00 0.00 0.00 84 1011.4
20260507010703 37 165 0.9 1.7 0.00 0.00 0.00 84 1011.5
20260507010204 38 165 0.0 0.9 0.00 0.00 0.00 84 1011.5
20260507005704 38 165 0.9 1.7 0.00 0.00 0.00 84 1011.5
20260507005204 37 165 0.0 0.9 0.00 0.00 0.00 84 1011.5
20260507004204 36 165 0.9 1.7 0.00 0.00 0.00 84 1011.6
20260507003704 36 143 0.0 0.9 0.00 0.00 0.00 83 1011.6
20260507003204 36 117 0.0 0.0 0.00 0.00 0.00 83 1011.7
20260507002703 36 117 0.0 0.0 0.00 0.00 0.00 83 1011.6
20260507001704 36 117 0.0 0.0 0.00 0.00 0.00 83 1011.8
20260507001204 36 117 0.0 0.0 0.00 0.00 0.00 82 1011.8
20260507000704 36 117 0.0 0.0 0.00 0.00 0.00 82 1011.8
20260506235703 36 126 0.0 0.0 0.00 0.00 0.00 82 1011.7
20260506234704 37 126 0.0 0.0 0.00 0.00 0.00 82 1011.7
20260506234204 37 130 0.0 0.0 0.00 0.00 0.00 82 1011.7
20260506233204 37 131 0.0 0.0 0.00 0.00 0.00 82 1011.7
20260506232203 37 130 0.0 0.0 0.00 0.00 0.00 82 1011.8
20260506231704 37 130 0.0 0.0 0.00 0.00 0.00 81 1011.8
20260506231203 37 130 0.0 0.0 0.00 0.00 0.00 81 1012.0
20260506230704 37 130 0.0 0.9 0.00 0.00 0.00 81 1012.0
20260506230204 37 130 0.0 0.9 0.00 0.00 0.00 80 1012.0
20260506225705 38 130 0.0 0.9 0.00 0.00 0.00 80 1012.1
20260506225204 38 130 0.0 0.0 0.00 0.00 0.00 80 1012.2